Wind_Speed
28 29 28 25 21 19 19 19 20 21 21 21 20 19 19 20 21 21 21 20 18 18 17 17 17 17 17 17 17 17 17 17 17 17 18 19 19 21 22 22 22 21
30 31 31 28 22 20 20 20 21 22 22 22 20 18 17 19 19 19 20 19 17 17 16 16 17 17 16 16 16 16 17 17 17 17 18 19 19 21 21 21 21 21
32 33 35 34 29 26 22 20 21 23 23 22 19 17 17 18 18 18 18 18 17 16 16 16 17 17 16 16 16 17 17 17 17 17 18 19 20 21 21 21 21 22
34 36 37 36 33 30 25 21 22 24 24 22 20 18 18 18 17 17 18 18 17 16 16 17 17 17 16 16 17 17 17 17 17 18 18 19 20 21 21 21 22 22
33 35 35 32 29 28 25 22 23 25 25 23 21 19 18 18 17 18 19 19 18 17 17 17 17 17 16 16 17 17 17 18 18 19 19 19 21 21 21 21 21 21
30 32 32 30 27 25 25 24 24 26 26 23 22 22 21 20 19 19 19 18 18 18 17 17 16 16 16 16 16 16 17 18 18 18 19 19 20 20 20 20 20 20
28 31 31 31 28 24 24 26 26 27 26 24 23 23 22 21 20 19 18 17 17 18 17 16 16 16 15 16 16 16 17 17 18 18 18 19 20 20 20 20 20 20
28 31 32 31 27 23 23 25 26 27 26 24 23 24 23 21 20 18 17 17 18 18 17 16 16 16 16 16 17 17 17 17 17 18 18 19 20 20 21 21 20 20
28 30 31 30 26 24 24 25 26 26 25 23 22 22 23 22 20 19 18 18 18 18 17 15 15 16 16 17 17 18 18 18 18 18 19 20 20 21 21 21 21 21
27 28 29 28 25 23 24 25 25 25 24 23 21 21 22 22 21 20 19 18 18 17 17 16 16 16 16 17 17 18 19 19 19 19 19 20 21 21 22 22 22 22
25 27 27 27 26 25 25 25 24 22 23 23 21 21 23 23 22 21 19 19 19 19 18 17 17 16 16 16 17 18 18 18 18 19 20 20 21 22 23 24 24 23
25 26 26 26 27 27 25 24 22 21 22 22 22 23 24 22 21 21 21 21 21 20 19 18 17 17 16 16 17 16 16 16 17 18 19 20 22 23 24 25 25 25
25 26 26 26 27 27 25 24 23 22 23 23 22 22 21 20 20 20 21 21 21 20 19 18 17 17 17 17 17 16 15 16 17 18 19 20 22 24 25 26 26 26
25 27 26 24 26 26 25 24 24 24 25 25 22 19 18 18 19 21 22 22 21 21 20 18 18 18 18 18 18 17 16 17 18 19 19 20 21 23 25 25 25 25
20 26 24 23 24 25 25 25 26 27 28 26 21 18 18 20 21 22 23 23 23 23 21 20 20 19 20 19 19 19 18 18 19 20 20 21 21 22 23 23 22 22
12 19 21 23 24 25 25 25 27 29 31 29 24 19 17 18 21 24 25 24 25 25 23 22 22 21 21 21 21 20 20 19 20 20 21 22 23 23 23 23 21 20
11 13 16 20 22 22 23 23 24 27 29 31 31 27 23 21 23 26 28 28 28 27 25 24 24 23 22 22 22 22 22 22 21 22 23 23 24 25 25 24 22 21
14 14 15 18 20 21 21 21 21 23 25 27 30 31 30 28 26 27 29 30 31 29 28 26 25 24 23 23 22 22 23 24 24 25 24 25 25 27 27 27 25 24
16 15 16 18 21 22 22 22 22 22 23 23 25 27 27 26 26 27 28 29 31 31 30 28 27 26 25 24 23 23 23 24 26 27 27 26 26 28 28 28 27 27
19 18 18 19 20 22 23 23 23 23 23 22 22 24 26 26 25 27 27 28 30 31 31 30 28 28 27 26 25 24 24 24 26 28 29 28 28 29 30 29 29 29
21 20 20 20 20 21 22 23 23 24 24 24 24 25 27 27 27 27 28 27 28 30 31 30 29 29 29 28 26 26 25 25 25 27 30 31 31 31 32 31 31 31
21 21 21 21 20 20 23 24 23 23 23 24 26 27 28 30 32 31 30 29 29 30 31 30 30 30 30 28 27 27 27 26 25 26 29 31 33 33 33 34 34 33
22 22 23 23 22 22 24 25 24 23 22 22 25 28 30 32 34 35 35 33 33 33 32 30 30 31 30 29 27 27 27 27 26 26 27 31 33 34 34 34 35 34
22 23 24 24 24 23 24 26 27 26 25 23 24 28 30 32 34 37 39 39 38 38 36 32 31 31 31 30 29 28 28 27 27 27 27 29 32 34 35 34 34 35
22 23 24 25 25 24 24 25 27 27 27 27 27 29 32 34 36 40 44 45 45 44 39 34 32 31 32 32 30 29 29 29 29 28 28 29 30 32 34 35 35 35
22 23 24 25 25 24 23 23 24 25 26 29 31 32 34 37 38 40 45 47 45 44 42 38 34 32 33 34 33 31 31 31 30 30 30 30 31 32 33 35 36 36
Wind_Direction
233 226 230 232 231 232 232 232 235 235 230 225 223 222 226 231 234 235 235 233 233 234 238 241 243 245 246 247 247 246 246 246 244 241 240 239 238 237 237 239 240 240
232 225 229 232 227 224 228 228 229 232 227 221 217 215 220 227 230 232 232 230 230 232 236 239 242 244 246 248 250 251 251 250 249 247 246 245 244 243 242 243 243 242
237 231 235 240 234 223 222 222 224 228 225 218 211 209 215 221 224 229 232 231 231 232 234 236 240 243 246 248 251 253 253 251 251 250 249 249 248 246 246 246 245 244
243 237 240 244 238 224 215 213 220 224 222 214 205 204 212 215 219 225 230 233 234 236 236 236 239 242 245 248 250 253 254 253 251 249 248 249 249 248 245 244 244 244
249 241 241 239 234 227 213 205 216 222 219 211 201 200 208 212 216 223 228 233 236 238 238 238 241 243 244 247 250 253 255 253 251 249 249 250 250 248 244 241 240 239
246 238 235 229 226 227 215 202 210 220 218 211 202 199 205 210 216 221 227 232 235 238 238 239 241 243 245 248 250 252 252 252 251 250 250 250 249 247 242 239 238 237
237 230 226 220 219 223 216 202 204 215 218 213 204 201 205 211 215 219 224 228 231 234 235 236 240 242 245 247 249 249 249 250 251 251 250 249 246 244 241 240 239 237
226 223 218 215 218 226 220 205 199 208 215 214 207 205 207 212 214 217 221 224 226 229 230 232 238 240 243 246 247 248 249 250 251 251 249 246 243 241 240 239 238 236
220 217 213 213 221 230 225 212 201 201 209 213 211 210 210 210 213 215 218 221 223 226 227 230 236 240 243 246 248 249 249 249 250 249 246 243 242 240 240 238 236 234
215 212 215 218 222 224 220 215 206 197 203 210 212 216 215 211 212 213 213 217 221 224 226 228 235 240 242 245 247 248 247 247 246 244 241 240 239 239 239 238 236 235
218 216 220 220 219 218 215 215 211 201 202 207 209 217 218 213 214 213 210 213 217 221 224 227 233 238 242 244 246 246 245 243 241 239 236 236 236 238 239 238 237 235
223 222 221 217 215 215 214 215 214 207 204 207 212 219 219 216 217 216 212 212 214 218 223 227 232 236 240 243 245 246 245 242 239 237 235 235 236 237 238 238 237 235
222 219 219 218 217 215 214 216 219 216 210 210 217 224 224 223 225 224 222 219 217 220 224 227 233 237 239 242 244 244 243 240 238 238 238 238 237 237 236 236 236 235
222 216 215 218 219 219 217 217 221 224 219 213 213 221 227 230 229 230 231 228 225 226 228 230 234 238 241 242 243 242 239 238 237 238 238 238 237 235 234 234 235 236
215 213 214 216 217 218 220 223 225 228 228 223 217 220 228 232 233 233 235 235 232 230 231 233 235 238 242 243 243 243 240 238 238 238 237 235 232 230 229 231 234 238
204 207 213 215 216 217 223 229 229 228 229 229 227 227 230 235 238 238 238 240 238 233 232 235 237 240 242 243 244 244 242 241 240 240 238 235 231 228 228 231 235 240
226 222 223 222 222 223 226 231 232 231 233 233 235 238 243 250 253 247 242 243 244 239 234 234 239 242 244 245 246 246 244 242 240 240 240 237 234 233 234 236 239 242
239 238 240 237 235 235 234 234 235 236 239 239 240 242 246 251 254 250 244 243 243 242 238 235 237 242 245 246 248 248 248 245 242 240 240 239 239 239 240 241 243 244
252 254 253 245 242 243 242 241 242 243 243 242 242 241 242 245 246 245 245 243 240 240 239 237 237 240 243 245 246 248 250 249 246 242 241 241 241 241 242 242 243 244
261 265 262 253 249 249 248 246 247 249 246 243 244 244 242 242 244 244 245 243 238 236 238 239 238 239 241 243 244 246 248 249 248 245 243 243 243 244 244 243 243 244
262 262 263 261 258 257 255 250 249 251 250 249 251 251 246 242 243 246 247 244 239 237 237 239 240 239 240 241 242 245 246 247 247 246 243 244 245 246 247 246 246 246
262 260 261 262 261 261 262 258 252 252 253 251 250 251 251 246 243 247 250 246 242 241 241 241 242 242 242 242 243 244 245 246 246 245 243 244 246 248 249 249 248 247
260 259 259 259 258 260 262 260 255 251 253 251 248 249 252 249 245 249 253 249 245 246 245 244 245 244 244 246 247 247 247 247 247 245 243 243 245 247 249 250 250 249
259 256 256 257 257 258 260 259 254 250 249 250 249 249 252 251 246 248 253 253 249 246 245 245 247 247 245 246 250 253 252 250 249 247 244 242 243 245 247 248 249 249
262 257 255 255 256 258 260 258 254 250 248 249 251 251 253 256 251 244 245 250 251 247 245 245 247 248 247 246 249 255 256 255 253 250 248 246 243 243 245 246 246 247
262 259 258 258 259 260 260 257 255 253 248 245 247 249 250 255 255 246 239 242 246 246 244 246 248 248 247 245 247 253 256 257 257 255 252 251 248 245 243 243 243 244
Height
5754 5755 5757 5757 5758 5760 5760 5761 5762 5763 5763 5763 5764 5766 5768 5769 5770 5771 5772 5773 5773 5774 5775 5776 5777 5778 5779 5780 5781 5781 5782 5783 5784 5785 5785 5785 5786 5786 5787 5787 5787 5788
5751 5752 5752 5752 5754 5756 5757 5757 5759 5760 5761 5761 5762 5764 5766 5767 5768 5770 5771 5772 5772 5773 5773 5774 5775 5776 5777 5778 5778 5779 5780 5781 5782 5783 5784 5784 5784 5784 5784 5784 5785 5785
5750 5750 5749 5748 5749 5752 5753 5754 5756 5758 5759 5759 5760 5762 5763 5764 5766 5768 5769 5771 5771 5771 5772 5772 5773 5774 5775 5776 5776 5777 5778 5779 5780 5781 5782 5782 5782 5782 5782 5782 5782 5783
5745 5745 5745 5744 5745 5748 5749 5751 5753 5755 5756 5757 5758 5759 5760 5762 5764 5766 5767 5769 5769 5769 5770 5770 5771 5772 5773 5773 5774 5775 5776 5777 5778 5779 5780 5780 5780 5780 5780 5780 5780 5781
5741 5741 5742 5742 5744 5747 5747 5748 5751 5753 5754 5754 5755 5756 5758 5759 5761 5763 5765 5766 5767 5767 5768 5768 5768 5769 5770 5771 5772 5773 5774 5775 5776 5776 5777 5778 5778 5778 5778 5778 5778 5778
5735 5736 5739 5740 5743 5745 5745 5744 5747 5751 5751 5751 5752 5754 5755 5756 5758 5759 5762 5763 5764 5765 5765 5766 5766 5766 5767 5768 5769 5770 5771 5772 5773 5774 5774 5775 5775 5775 5776 5776 5776 5776
5730 5731 5734 5737 5740 5742 5742 5741 5743 5747 5749 5749 5750 5751 5752 5753 5754 5756 5758 5760 5761 5762 5762 5763 5764 5764 5765 5765 5767 5768 5769 5770 5770 5771 5772 5772 5773 5773 5774 5774 5774 5774
5726 5727 5730 5734 5737 5739 5739 5739 5740 5743 5746 5747 5748 5749 5750 5751 5752 5753 5755 5756 5757 5758 5759 5760 5761 5761 5762 5763 5764 5765 5766 5767 5768 5768 5769 5770 5770 5771 5772 5772 5772 5773
5723 5724 5727 5731 5735 5737 5738 5738 5737 5738 5742 5745 5746 5747 5748 5749 5750 5751 5753 5754 5754 5755 5756 5758 5758 5759 5759 5760 5761 5762 5763 5764 5765 5766 5767 5768 5768 5769 5770 5770 5771 5771
5721 5723 5725 5729 5733 5734 5736 5737 5737 5736 5738 5741 5744 5746 5746 5746 5748 5749 5750 5751 5752 5753 5754 5755 5756 5756 5757 5758 5759 5760 5761 5762 5763 5764 5765 5766 5767 5768 5768 5769 5769 5769
5721 5723 5724 5727 5730 5731 5733 5735 5736 5736 5736 5738 5742 5744 5743 5744 5745 5746 5747 5749 5750 5750 5752 5753 5753 5754 5756 5757 5758 5758 5759 5760 5761 5762 5763 5764 5765 5766 5766 5766 5767 5768
5720 5721 5723 5725 5727 5728 5730 5733 5735 5735 5735 5737 5739 5741 5741 5741 5742 5744 5745 5746 5747 5748 5749 5750 5752 5753 5754 5755 5756 5757 5757 5758 5759 5759 5761 5762 5763 5763 5764 5764 5765 5766
5718 5720 5721 5723 5724 5726 5727 5730 5732 5734 5734 5735 5737 5739 5739 5739 5740 5741 5743 5744 5745 5746 5746 5748 5749 5751 5752 5753 5754 5754 5755 5756 5756 5757 5758 5760 5761 5761 5762 5762 5763 5764
5715 5717 5720 5722 5723 5724 5725 5727 5730 5732 5732 5732 5734 5736 5737 5737 5738 5739 5740 5742 5743 5743 5744 5745 5746 5748 5749 5750 5751 5752 5753 5753 5754 5755 5756 5757 5758 5759 5760 5761 5761 5762
5712 5715 5717 5719 5721 5722 5724 5725 5727 5729 5730 5731 5732 5733 5734 5735 5736 5736 5738 5739 5740 5740 5741 5742 5743 5744 5746 5748 5749 5749 5750 5751 5752 5753 5754 5755 5756 5757 5758 5759 5760 5761
5710 5713 5716 5717 5718 5720 5721 5723 5724 5725 5726 5728 5730 5730 5731 5732 5733 5734 5735 5737 5737 5738 5738 5738 5740 5741 5743 5745 5746 5747 5748 5748 5749 5750 5751 5753 5754 5755 5756 5756 5757 5758
5710 5712 5713 5715 5716 5717 5718 5719 5721 5722 5723 5725 5726 5727 5728 5729 5731 5731 5732 5734 5735 5735 5735 5735 5736 5738 5740 5742 5743 5744 5745 5746 5747 5748 5749 5750 5751 5752 5753 5754 5755 5756
5710 5711 5711 5712 5713 5714 5715 5717 5718 5719 5720 5721 5722 5723 5724 5725 5726 5727 5728 5730 5731 5732 5732 5733 5733 5735 5736 5738 5740 5741 5742 5743 5744 5745 5746 5747 5749 5749 5750 5751 5752 5753
5708 5709 5710 5710 5711 5712 5713 5714 5715 5716 5717 5717 5718 5719 5720 5721 5722 5723 5724 5726 5727 5728 5729 5730 5731 5732 5733 5735 5737 5738 5739 5740 5740 5741 5743 5744 5745 5746 5747 5748 5749 5749
5705 5706 5707 5708 5708 5709 5710 5711 5711 5712 5713 5714 5714 5715 5716 5717 5718 5719 5720 5721 5723 5724 5725 5726 5727 5729 5730 5732 5733 5734 5736 5736 5737 5737 5739 5740 5741 5742 5743 5744 5745 5745
5703 5704 5704 5704 5705 5705 5706 5707 5707 5708 5709 5710 5710 5710 5711 5712 5713 5714 5716 5718 5719 5720 5721 5722 5723 5725 5726 5728 5729 5731 5732 5732 5733 5733 5734 5736 5736 5737 5738 5740 5741 5741
5700 5701 5701 5701 5702 5702 5702 5703 5704 5704 5705 5706 5706 5706 5707 5708 5709 5710 5712 5714 5715 5715 5716 5717 5719 5720 5722 5724 5725 5727 5727 5728 5729 5730 5731 5731 5732 5733 5734 5735 5736 5737
5696 5697 5697 5697 5698 5699 5698 5698 5699 5700 5702 5702 5702 5702 5703 5704 5705 5705 5706 5709 5711 5711 5711 5713 5714 5715 5717 5718 5720 5722 5723 5724 5725 5726 5727 5728 5728 5729 5729 5730 5730 5731
5693 5693 5694 5694 5694 5695 5695 5694 5694 5696 5697 5698 5698 5698 5699 5700 5700 5700 5701 5703 5705 5706 5707 5708 5710 5711 5712 5714 5715 5716 5718 5719 5721 5722 5724 5725 5725 5725 5726 5726 5726 5726
5689 5689 5689 5690 5690 5691 5691 5691 5691 5692 5693 5694 5694 5694 5695 5695 5696 5696 5696 5696 5699 5701 5702 5704 5705 5707 5708 5709 5710 5711 5712 5714 5716 5717 5719 5720 5721 5722 5722 5722 5722 5722
5686 5685 5685 5685 5686 5687 5687 5688 5688 5688 5689 5690 5691 5691 5691 5691 5691 5692 5692 5692 5693 5696 5698 5699 5701 5702 5704 5705 5706 5707 5708 5709 5710 5712 5713 5715 5716 5717 5718 5719 5718 5718